• In Uzbekistan
  • List of Countries
  • For 7 days
  • Water Temperature
  • Satellite Maps
  • Weather Map
  • Weather Widgets
  • user-avatar
    Login

    Hourly Weather Lubinka

    Today, 24 June, Monday

    Time Temperature Precipitation Wind Pressure Humidity
    00:00 +17°C° 0 mm 2 mps 730 mmHg 97%
    01:00 +17°C° 0 mm 2 mps 730 mmHg 99%
    02:00 +16°C° 0 mm 2 mps 730 mmHg 99%
    03:00 +16°C° 0 mm 2 mps 730 mmHg 99%
    04:00 +16°C° 0 mm 1 mps 730 mmHg 98%
    05:00 +17°C° 0 mm 2 mps 731 mmHg 96%
    06:00 +17°C° 0 mm 2 mps 731 mmHg 94%
    07:00 +18°C° 0 mm 3 mps 731 mmHg 92%
    08:00 +19°C° 0 mm 3 mps 732 mmHg 87%
    09:00 +20°C° 0 mm 3 mps 732 mmHg 83%
    10:00 +21°C° 0 mm 3 mps 732 mmHg 78%
    11:00 +22°C° 0.1 mm 4 mps 732 mmHg 76%
    12:00 +23°C° 0.1 mm 4 mps 733 mmHg 73%
    13:00 +23°C° 0.1 mm 4 mps 733 mmHg 71%
    14:00 +23°C° 0.1 mm 4 mps 733 mmHg 72%
    15:00 +23°C° 0.1 mm 4 mps 733 mmHg 73%
    16:00 +23°C° 0.1 mm 4 mps 732 mmHg 74%
    17:00 +23°C° 0.1 mm 4 mps 733 mmHg 78%
    18:00 +22°C° 0.1 mm 3 mps 733 mmHg 82%
    19:00 +21°C° 0.1 mm 3 mps 733 mmHg 86%
    20:00 +20°C° 0 mm 3 mps 733 mmHg 88%
    21:00 +19°C° 0 mm 2 mps 733 mmHg 90%
    22:00 +18°C° 0 mm 2 mps 733 mmHg 91%
    23:00 +17°C° 0 mm 2 mps 733 mmHg 93%

    Tomorrow, 25 June, Tuesday

    Time Temperature Precipitation Wind Pressure Humidity
    00:00 +17°C° 0 mm 2 mps 733 mmHg 94%
    01:00 +16°C° 0 mm 1 mps 733 mmHg 95%
    02:00 +16°C° 0 mm 1 mps 733 mmHg 96%
    03:00 +16°C° 0 mm 1 mps 733 mmHg 96%
    04:00 +16°C° 0 mm 1 mps 733 mmHg 97%
    05:00 +17°C° 0 mm 2 mps 733 mmHg 95%
    06:00 +18°C° 0 mm 2 mps 734 mmHg 93%
    07:00 +19°C° 0 mm 3 mps 734 mmHg 91%
    08:00 +20°C° 0 mm 3 mps 734 mmHg 88%
    09:00 +21°C° 0 mm 4 mps 734 mmHg 86%
    10:00 +22°C° 0 mm 4 mps 734 mmHg 83%
    11:00 +23°C° 0 mm 4 mps 735 mmHg 77%
    12:00 +25°C° 0 mm 4 mps 735 mmHg 73%
    13:00 +26°C° 0 mm 4 mps 735 mmHg 68%
    14:00 +26°C° 0 mm 4 mps 734 mmHg 68%
    15:00 +26°C° 0 mm 4 mps 734 mmHg 68%
    16:00 +26°C° 0 mm 4 mps 734 mmHg 67%
    17:00 +25°C° 0 mm 3 mps 734 mmHg 73%
    18:00 +22°C° 0 mm 3 mps 734 mmHg 80%
    19:00 +21°C° 0 mm 3 mps 734 mmHg 86%
    20:00 +20°C° 0 mm 2 mps 734 mmHg 88%
    21:00 +19°C° 0 mm 2 mps 734 mmHg 91%
    22:00 +18°C° 0 mm 2 mps 734 mmHg 94%
    23:00 +17°C° 0 mm 2 mps 734 mmHg 94%

    Day after tomorrow, 26 June, Wednesday

    Time Temperature Precipitation Wind Pressure Humidity
    00:00 +18°C° 0 mm 1 mps 734 mmHg 94%
    01:00 +16°C° 0 mm 1 mps 734 mmHg 95%
    02:00 +16°C° 0 mm 1 mps 734 mmHg 95%
    03:00 +15°C° 0 mm 1 mps 733 mmHg 95%
    04:00 +15°C° 0 mm 1 mps 733 mmHg 96%
    05:00 +16°C° 0 mm 0 mps 733 mmHg 91%
    06:00 +18°C° 0 mm 0 mps 733 mmHg 87%
    07:00 +20°C° 0 mm 0 mps 734 mmHg 83%
    08:00 +22°C° 0 mm 0 mps 734 mmHg 75%
    09:00 +25°C° 0 mm 1 mps 734 mmHg 68%
    10:00 +27°C° 0 mm 1 mps 734 mmHg 60%
    11:00 +28°C° 0 mm 1 mps 734 mmHg 58%
    12:00 +29°C° 0 mm 1 mps 733 mmHg 55%
    13:00 +30°C° 0 mm 1 mps 733 mmHg 53%
    14:00 +30°C° 0 mm 1 mps 733 mmHg 53%
    15:00 +30°C° 0 mm 1 mps 732 mmHg 53%
    16:00 +30°C° 0 mm 1 mps 732 mmHg 53%
    17:00 +28°C° 0 mm 1 mps 732 mmHg 58%
    18:00 +27°C° 0 mm 1 mps 731 mmHg 63%
    19:00 +26°C° 0 mm 1 mps 731 mmHg 69%
    20:00 +24°C° 0 mm 1 mps 731 mmHg 71%
    21:00 +23°C° 0 mm 2 mps 731 mmHg 74%
    22:00 +21°C° 0 mm 2 mps 731 mmHg 76%
    23:00 +21°C° 0 mm 2 mps 730 mmHg 78%

    27 June, Thursday

    Time Temperature Precipitation Wind Pressure Humidity
    00:00 +21°C° 0 mm 2 mps 730 mmHg 79%
    01:00 +20°C° 0 mm 2 mps 729 mmHg 81%
    02:00 +20°C° 0 mm 2 mps 729 mmHg 82%
    03:00 +20°C° 0 mm 2 mps 729 mmHg 82%
    04:00 +20°C° 0 mm 2 mps 728 mmHg 82%
    05:00 +22°C° 0 mm 3 mps 728 mmHg 79%
    06:00 +23°C° 0 mm 4 mps 728 mmHg 76%
    07:00 +26°C° 0 mm 4 mps 728 mmHg 73%
    08:00 +26°C° 2.2 mm 5 mps 728 mmHg 76%
    09:00 +26°C° 2.2 mm 6 mps 728 mmHg 80%
    10:00 +26°C° 2.2 mm 6 mps 728 mmHg 83%
    11:00 +26°C° 1.5 mm 6 mps 728 mmHg 80%
    12:00 +26°C° 1.5 mm 6 mps 728 mmHg 76%
    13:00 +26°C° 1.5 mm 7 mps 727 mmHg 73%
    14:00 +26°C° 0 mm 6 mps 727 mmHg 71%
    15:00 +24°C° 0 mm 6 mps 727 mmHg 70%
    16:00 +24°C° 0 mm 6 mps 727 mmHg 68%
    17:00 +22°C° 0.1 mm 5 mps 727 mmHg 73%
    18:00 +21°C° 0.1 mm 5 mps 727 mmHg 77%
    19:00 +20°C° 0.1 mm 4 mps 727 mmHg 82%
    20:00 +19°C° 0 mm 4 mps 727 mmHg 85%
    21:00 +18°C° 0 mm 3 mps 727 mmHg 88%
    22:00 +17°C° 0 mm 3 mps 727 mmHg 91%
    23:00 +16°C° 0.1 mm 2 mps 727 mmHg 92%

    28 June, Friday

    Time Temperature Precipitation Wind Pressure Humidity
    00:00 +16°C° 0.1 mm 2 mps 727 mmHg 94%
    01:00 +16°C° 0.1 mm 2 mps 727 mmHg 95%
    02:00 +16°C° 0 mm 1 mps 727 mmHg 94%
    03:00 +16°C° 0 mm 1 mps 727 mmHg 94%
    04:00 +16°C° 0 mm 1 mps 727 mmHg 93%
    05:00 +16°C° 0.1 mm 1 mps 727 mmHg 91%
    06:00 +17°C° 0.1 mm 2 mps 727 mmHg 89%
    07:00 +17°C° 0.1 mm 2 mps 727 mmHg 87%
    08:00 +18°C° 0.2 mm 3 mps 727 mmHg 82%
    09:00 +20°C° 0.2 mm 4 mps 727 mmHg 78%
    10:00 +21°C° 0.2 mm 5 mps 727 mmHg 73%
    11:00 +21°C° 0.1 mm 6 mps 727 mmHg 67%
    12:00 +22°C° 0.1 mm 6 mps 727 mmHg 62%
    13:00 +22°C° 0.1 mm 7 mps 727 mmHg 57%
    14:00 +22°C° 0 mm 7 mps 727 mmHg 59%
    15:00 +21°C° 0 mm 7 mps 727 mmHg 61%
    16:00 +21°C° 0 mm 7 mps 727 mmHg 63%
    17:00 +19°C° 0 mm 6 mps 727 mmHg 68%
    18:00 +18°C° 0 mm 4 mps 727 mmHg 74%
    19:00 +17°C° 0 mm 3 mps 727 mmHg 79%
    20:00 +16°C° 0 mm 3 mps 728 mmHg 83%
    21:00 +15°C° 0 mm 2 mps 728 mmHg 87%
    22:00 +14°C° 0 mm 2 mps 728 mmHg 91%
    23:00 +13°C° 0 mm 1 mps 728 mmHg 91%

    29 June, Saturday

    Time Temperature Precipitation Wind Pressure Humidity
    00:00 +12°C° 0 mm 1 mps 728 mmHg 91%
    01:00 +12°C° 0 mm 1 mps 728 mmHg 92%
    02:00 +12°C° 0 mm 1 mps 728 mmHg 90%
    03:00 +12°C° 0 mm 1 mps 728 mmHg 88%
    04:00 +12°C° 0 mm 1 mps 729 mmHg 86%
    05:00 +13°C° 0 mm 1 mps 728 mmHg 80%
    06:00 +14°C° 0 mm 1 mps 728 mmHg 74%
    07:00 +15°C° 0 mm 1 mps 728 mmHg 67%
    08:00 +18°C° 0 mm 1 mps 728 mmHg 65%
    09:00 +19°C° 0 mm 2 mps 728 mmHg 62%
    10:00 +21°C° 0 mm 3 mps 728 mmHg 59%
    11:00 +21°C° 0.3 mm 4 mps 728 mmHg 60%
    12:00 +22°C° 0.3 mm 4 mps 728 mmHg 61%
    13:00 +22°C° 0.3 mm 5 mps 727 mmHg 62%
    14:00 +22°C° 0.2 mm 5 mps 727 mmHg 62%
    15:00 +22°C° 0.2 mm 5 mps 727 mmHg 63%
    16:00 +22°C° 0.2 mm 5 mps 726 mmHg 64%
    17:00 +21°C° 0.3 mm 4 mps 727 mmHg 71%
    18:00 +19°C° 0.3 mm 3 mps 727 mmHg 77%
    19:00 +18°C° 0.3 mm 2 mps 727 mmHg 83%
    20:00 +17°C° 0 mm 2 mps 727 mmHg 85%
    21:00 +15°C° 0 mm 1 mps 728 mmHg 86%
    22:00 +14°C° 0 mm 1 mps 728 mmHg 87%
    23:00 +13°C° 0 mm 1 mps 728 mmHg 87%
    Show more